Gulfport, MS

9:52 PM CDT on July 27, 2017 (GMT -0500)
Gulfport-Biloxi Regional

Weather History for KGPT - March, 2014

Change the Weather History Date:

Thursday, March 6, 2014

  Actual Average Record
Temperature  
Mean Temperature 56 °F -  
Max Temperature 63 °F 67 °F 82 °F (1955)
Min Temperature 48 °F 47 °F 28 °F (1960)
Degree Days  
Heating Degree Days 8    
Growing Degree Days 6 (Base 50)    
Moisture  
Dew Point 49 °F    
Average Humidity 83    
Maximum Humidity 90    
Minimum Humidity 63    
Precipitation  
Precipitation 0.23 in - - ()
Sea Level Pressure  
Sea Level Pressure 29.95 in    
Wind  
Wind Speed 7 mph (NNW)    
Max Wind Speed 15 mph    
Max Gust Speed 22 mph    
Visibility 7 miles    
Events Rain    
Averages and records for this station are not official NWS values.
T = Trace of Precipitation, MM = Missing Value Source: NWS Daily Summary

Daily Weather History Graph

Daily Weather History Graph

Search for Another Location

Airport or City:

Trip Planner

Search our weather history database for the weather conditions in past years. The results will help you decide how hot, cold, wet, or windy it might be!

Date:

Astronomy

Mar. 06, 2014 Rise Set
Actual Time 6:16 AM CST 5:58 PM CST
Civil Twilight 5:52 AM CST 6:22 PM CST
Nautical Twilight 5:24 AM CST 6:50 PM CST
Astronomical Twilight 4:57 AM CST 7:18 PM CST
Moon 9:48 AM CST (3/6) 11:39 PM CST (3/6)
Length of Visible Light 12h 29m
Length of Day
11h 41m
Waxing Crescent, 32% of the Moon is Illuminated
Mar 6
Waxing Crescent
Mar 8
First Quarter
Mar 16
Full
Mar 23
Last Quarter
Mar 30
New

Hourly Weather History & Observations

Time (CST) Temp. Dew Point Humidity Pressure Visibility Wind Dir Wind Speed Gust Speed Precip Events Conditions
12:53 AM 53.1 °F 48.9 °F 86% 29.97 in 9.0 mi NNE 4.6 mph - 0.01 in   Scattered Clouds
1:53 AM 53.1 °F 48.9 °F 86% 29.93 in 8.0 mi NE 6.9 mph - 0.00 in Rain Light Rain
2:53 AM 53.1 °F 48.9 °F 86% 29.93 in 5.0 mi ENE 9.2 mph - 0.11 in Rain Light Rain
3:22 AM 53.1 °F 48.9 °F 86% 29.95 in 8.0 mi North 3.5 mph - 0.01 in   Overcast
3:45 AM 53.1 °F 48.9 °F 86% 29.95 in 8.0 mi NNW 4.6 mph - 0.01 in   Overcast
3:53 AM 53.1 °F 48.9 °F 86% 29.94 in 8.0 mi North 3.5 mph - 0.01 in   Overcast
4:10 AM 53.1 °F 48.9 °F 86% 29.94 in 8.0 mi ENE 3.5 mph - N/A   Overcast
4:53 AM 52.0 °F 48.9 °F 89% 29.90 in 7.0 mi North 5.8 mph - N/A   Scattered Clouds
5:53 AM 52.0 °F 48.9 °F 89% 29.95 in 7.0 mi NNW 4.6 mph - N/A   Overcast
6:04 AM 52.0 °F 48.9 °F 89% 29.96 in 8.0 mi NNW 5.8 mph - N/A   Overcast
6:53 AM 52.0 °F 48.9 °F 89% 29.97 in 7.0 mi NNW 4.6 mph - N/A   Overcast
7:19 AM 52.0 °F 48.9 °F 89% 29.98 in 2.5 mi NNW 6.9 mph - N/A   Overcast
7:34 AM 52.0 °F 48.9 °F 89% 29.98 in 2.5 mi North 6.9 mph - N/A   Overcast
7:38 AM 52.0 °F 48.9 °F 89% 29.98 in 1.5 mi NNW 6.9 mph - N/A   Overcast
7:53 AM 52.0 °F 48.9 °F 89% 29.99 in 2.0 mi NNW 6.9 mph - N/A   Overcast
8:49 AM 53.6 °F 50.0 °F 88% 29.97 in 7.0 mi North 6.9 mph - N/A   Overcast
8:53 AM 55.0 °F 50.0 °F 83% 29.97 in 7.0 mi North 5.8 mph - N/A   Mostly Cloudy
9:29 AM 57.9 °F 51.1 °F 78% 29.96 in 10.0 mi North 4.6 mph - N/A   Scattered Clouds
9:53 AM 60.1 °F 51.1 °F 72% 29.96 in 10.0 mi NNW 6.9 mph - N/A   Scattered Clouds
10:53 AM 62.1 °F 52.0 °F 70% 29.95 in 10.0 mi WNW 5.8 mph - N/A   Overcast
11:53 AM 63.0 °F 50.0 °F 63% 29.93 in 10.0 mi NW 5.8 mph - N/A   Overcast
12:08 PM 63.0 °F 51.1 °F 65% 29.93 in 10.0 mi NW 6.9 mph - N/A   Overcast
12:53 PM 63.0 °F 50.0 °F 63% 29.91 in 10.0 mi NNW 8.1 mph - N/A   Overcast
1:53 PM 60.1 °F 50.0 °F 69% 29.91 in 10.0 mi NW 10.4 mph - N/A   Overcast
2:53 PM 57.9 °F 48.9 °F 72% 29.91 in 10.0 mi NNW 13.8 mph 21.9 mph N/A   Overcast
3:20 PM 55.9 °F 51.1 °F 84% 29.91 in 2.0 mi NNW 10.4 mph - 0.01 in Rain Light Rain
3:31 PM 55.0 °F 51.1 °F 86% 29.91 in 3.0 mi NNW 10.4 mph - 0.02 in Rain Light Rain
3:37 PM 55.9 °F 51.1 °F 84% 29.91 in 2.0 mi NNW 11.5 mph - 0.02 in Rain Light Rain
3:51 PM 55.4 °F 50.0 °F 82% 29.91 in 4.0 mi NNW 12.7 mph - 0.03 in Rain Light Rain
3:53 PM 55.0 °F 50.0 °F 83% 29.91 in 4.0 mi NNW 13.8 mph - 0.03 in Rain Light Rain
4:17 PM 55.0 °F 50.0 °F 83% 29.91 in 5.0 mi NNW 12.7 mph - 0.01 in Rain Light Rain
4:45 PM 54.0 °F 48.9 °F 83% 29.92 in 3.0 mi NNW 15.0 mph - 0.03 in Rain Light Rain
4:53 PM 54.0 °F 50.0 °F 86% 29.91 in 4.0 mi NNW 12.7 mph - 0.04 in Rain Light Rain
5:07 PM 54.0 °F 50.0 °F 86% 29.93 in 4.0 mi NW 9.2 mph - 0.01 in Rain Light Rain
5:53 PM 53.1 °F 48.9 °F 86% 29.93 in 10.0 mi North 12.7 mph - 0.02 in Rain Light Rain
6:53 PM 52.0 °F 48.0 °F 86% 29.94 in 10.0 mi NNW 8.1 mph - 0.01 in Rain Light Rain
7:10 PM 52.0 °F 48.0 °F 86% 29.95 in 10.0 mi NW 9.2 mph - 0.00 in Rain Light Rain
7:53 PM 51.1 °F 46.9 °F 86% 29.96 in 8.0 mi NNW 12.7 mph - 0.00 in   Overcast
8:53 PM 51.1 °F 46.0 °F 83% 29.97 in 10.0 mi North 12.7 mph 19.6 mph N/A   Overcast
9:53 PM 51.1 °F 46.0 °F 83% 29.99 in 10.0 mi NW 9.2 mph - N/A   Overcast
10:53 PM 50.0 °F 46.0 °F 86% 30.00 in 5.0 mi NNW 11.5 mph - 0.00 in Rain Light Rain
11:00 PM 50.0 °F 46.0 °F 86% 30.00 in 4.0 mi NNW 9.2 mph - 0.00 in Rain Light Rain
11:53 PM 48.9 °F 46.0 °F 90% 30.00 in 5.0 mi NNW 5.8 mph - 0.00 in Rain Light Rain